Погода в Рютине

Россия / Тверская область     58°07′36″N   33°58′27″E
темп.,
°C
ветер,
м/с
пор.,
м/с
влажн.,
%
обл.,
%
осадки,
мм/ч
давл.,
гПа
погр.,
м
1 июля, пт
пт100:00+15с22745 0.0 102032
03:00+14ссз22825 0.0 102124
06:00+16сз277423 0.0 1020202
09:00+21ссв34530 0.0 1020731
12:00+25всв454331 0.0 10201659
15:00+26всв3430100 0.0 10211763
18:00+25в33345 0.0 10211605
21:00+17юв386319 0.0 1022182
2 июля, сб
сб200:00+13ю26645 0.0 1024101
03:00+11ю23675 0.0 102447
06:00+14юз12675 0.0 102477
09:00+21зюз11435 0.0 1024476
12:00+26сз113233 0.0 10221101
15:00+28сз22298 0.0 10211304
18:00+27ссз133999 0.0 1020626
21:00+20з226276 0.0 101922
3 июля, вс
вс300:00+18зсз2260100 0.0 101942
03:00+18сз2260100 0.0 101931
06:00+18з2264100 0.0 101945
09:00+23сз235186 0.0 1018359
12:00+28ссз2238100 0.0 10181291
15:00+30ссв123377 0.0 10171884
18:00+29ссз123640 0.0 10161466
21:00+22зюз235944 0.0 101657
4 июля, пн
пн400:00+18ююв2276100 0.2 101719
03:00+17ююз118099 0.3 101711
06:00+19зюз238170 0.0 101774
09:00+25зсз1261100 0.0 1017483
12:00+29з1247100 0.0 10161206
15:00+29всв0243100 0.1 10151885
18:00+19юз1492100 3.8 1016160
21:00+19з3794100 4.3 1016216
5 июля, вт
вт500:00+17ююв229497 0.0 101544
03:00+16ююз239776 0.2 101570
06:00+18ююз1595100 0.8 1015158
09:00+22юз357431 0.8 1014640
12:00+24зюз4579100 1.4 10131032
15:00+24з46732 3.9 10131119
18:00+27зсз464264 0.2 10122181
21:00+20з31068100 0.2 1012262